SCF1870 ZGGG-ZUUU

Flight info

Callsign SCF1870
Flight time 1h 57m
Altitude 30100
Route AGVIL8 AGVIL W24 OSNOV G586 QP B330 ELKAL W179 IGNAK IGNAK2E
Aircraft A320/M-SDE3FGHIRWY/LB1

Departure

Time 2026-04-28 13:46
Airport Guangzhou Baiyun International Airport (ZGGG)

Arrival

Time 2026-04-28 15:44
Airport Chengdu Shuangliu International Airport (ZUUU)
Time Latitude Longitude Altitude Speed Heading
2026-04-28 13:38 23.40159 113.30704 52 ft 0 kts 267°
2026-04-28 13:40 23.40159 113.30706 58 ft 2 kts 267°
2026-04-28 13:40 23.40160 113.30725 58 ft 2 kts 267°
2026-04-28 13:40 23.40161 113.30743 58 ft 2 kts 267°
2026-04-28 13:41 23.40162 113.30762 58 ft 2 kts 267°
2026-04-28 13:41 23.40163 113.30781 55 ft 2 kts 267°
2026-04-28 13:41 23.40164 113.30793 56 ft 0 kts 273°
2026-04-28 13:41 23.40159 113.30810 57 ft 2 kts 336°
2026-04-28 13:42 23.40145 113.30812 54 ft 0 kts 22°
2026-04-28 13:43 23.40161 113.30819 55 ft 8 kts 27°
2026-04-28 13:43 23.40241 113.30854 55 ft 14 kts 13°
2026-04-28 13:43 23.40331 113.30878 52 ft 12 kts 15°
2026-04-28 13:43 23.40408 113.30900 57 ft 10 kts 18°
2026-04-28 13:44 23.40433 113.30956 56 ft 8 kts 99°
2026-04-28 13:44 23.40459 113.31013 56 ft 13 kts 26°
2026-04-28 13:44 23.40571 113.31043 53 ft 18 kts 13°
2026-04-28 13:44 23.40695 113.31076 53 ft 19 kts 14°
2026-04-28 13:45 23.40737 113.31177 58 ft 17 kts 104°
2026-04-28 13:45 23.40709 113.31299 56 ft 14 kts 103°
2026-04-28 13:45 23.40677 113.31372 55 ft 9 kts 167°
2026-04-28 13:45 23.40617 113.31356 50 ft 13 kts 194°
2026-04-28 13:46 23.40360 113.31288 49 ft 72 kts 194°
2026-04-28 13:46 23.39669 113.31102 54 ft 130 kts 194°
2026-04-28 13:46 23.38637 113.30818 103 ft 171 kts 193°
2026-04-28 13:46 23.37464 113.30491 654 ft 178 kts 192°
2026-04-28 13:47 23.36236 113.30161 1199 ft 185 kts 191°
2026-04-28 13:47 23.34940 113.29819 1625 ft 202 kts 192°
2026-04-28 13:47 23.33498 113.29451 1948 ft 227 kts 192°
2026-04-28 13:47 23.31947 113.29040 2806 ft 230 kts 194°
2026-04-28 13:48 23.30414 113.28618 3799 ft 226 kts 194°
2026-04-28 13:48 23.28856 113.28435 4683 ft 228 kts 181°
2026-04-28 13:48 23.27253 113.28442 5402 ft 233 kts 182°
2026-04-28 13:48 23.25612 113.28420 6138 ft 238 kts 183°
2026-04-28 13:49 23.23938 113.28399 6847 ft 243 kts 183°
2026-04-28 13:49 23.22232 113.28382 7565 ft 247 kts 184°
2026-04-28 13:49 23.20502 113.28368 8312 ft 251 kts 184°
2026-04-28 13:49 23.18744 113.28300 9009 ft 254 kts 192°
2026-04-28 13:50 23.17016 113.27905 9768 ft 256 kts 196°
2026-04-28 13:50 23.15270 113.27477 10431 ft 259 kts 196°
2026-04-28 13:50 23.13507 113.27005 10842 ft 261 kts 204°
2026-04-28 13:50 23.12039 113.25931 10948 ft 255 kts 231°
2026-04-28 13:51 23.11254 113.24234 10982 ft 254 kts 258°
2026-04-28 13:51 23.11299 113.22312 10974 ft 258 kts 278°
2026-04-28 13:51 23.11651 113.20394 10983 ft 259 kts 278°
2026-04-28 13:51 23.12021 113.18475 11007 ft 261 kts 278°
2026-04-28 13:52 23.12399 113.16536 11606 ft 263 kts 278°
2026-04-28 13:52 23.12776 113.14587 12336 ft 264 kts 278°
2026-04-28 13:52 23.13150 113.12624 13034 ft 266 kts 278°
2026-04-28 13:52 23.13668 113.10676 13689 ft 274 kts 293°
2026-04-28 13:53 23.14895 113.09051 14251 ft 288 kts 319°
2026-04-28 13:53 23.16790 113.08111 14469 ft 318 kts 347°
2026-04-28 13:53 23.19087 113.07958 14590 ft 343 kts 355°
2026-04-28 13:53 23.21550 113.07942 14720 ft 364 kts 356°
2026-04-28 13:54 23.24143 113.07967 14848 ft 382 kts 357°
2026-04-28 13:54 23.26853 113.07997 15062 ft 396 kts 357°
2026-04-28 13:54 23.29630 113.08020 15518 ft 401 kts 357°
2026-04-28 13:54 23.32431 113.08033 16039 ft 404 kts 356°
2026-04-28 13:55 23.35258 113.08032 16560 ft 407 kts 356°
2026-04-28 13:55 23.38103 113.08020 17069 ft 410 kts 356°
2026-04-28 13:55 23.40966 113.08004 17574 ft 413 kts 356°
2026-04-28 13:55 23.43811 113.07991 18063 ft 416 kts 356°
2026-04-28 13:56 23.46715 113.07982 18484 ft 419 kts 356°
2026-04-28 13:56 23.49640 113.07974 18902 ft 421 kts 356°
2026-04-28 13:56 23.52581 113.07966 19320 ft 424 kts 356°
2026-04-28 13:56 23.55541 113.07949 19735 ft 426 kts 356°
2026-04-28 13:57 23.58514 113.07923 20155 ft 429 kts 356°
2026-04-28 13:57 23.61504 113.07896 20554 ft 431 kts 356°
2026-04-28 13:57 23.64512 113.07871 20949 ft 433 kts 356°
2026-04-28 13:57 23.67531 113.07807 21334 ft 434 kts 352°
2026-04-28 13:58 23.70506 113.07302 21718 ft 431 kts 342°
2026-04-28 13:58 23.73339 113.06268 22102 ft 429 kts 332°
2026-04-28 13:58 23.76056 113.04924 22486 ft 430 kts 331°
2026-04-28 13:58 23.78789 113.03569 22875 ft 433 kts 331°
2026-04-28 13:59 23.81541 113.02209 23263 ft 435 kts 331°
2026-04-28 13:59 23.84305 113.00844 23606 ft 437 kts 331°
2026-04-28 13:59 23.87087 112.99471 23887 ft 440 kts 331°
2026-04-28 13:59 23.89885 112.98094 24171 ft 442 kts 331°
2026-04-28 14:00 23.92697 112.96711 24454 ft 444 kts 331°
2026-04-28 14:00 23.95521 112.95319 24737 ft 446 kts 331°
2026-04-28 14:00 23.98356 112.93921 25027 ft 448 kts 331°
2026-04-28 14:00 24.01201 112.92516 25318 ft 450 kts 331°
2026-04-28 14:01 24.04058 112.91104 25594 ft 451 kts 331°
2026-04-28 14:01 24.06925 112.89688 25852 ft 453 kts 331°
2026-04-28 14:01 24.09805 112.88262 26136 ft 455 kts 331°
2026-04-28 14:01 24.12691 112.86830 26412 ft 457 kts 331°
2026-04-28 14:02 24.15620 112.85451 26678 ft 461 kts 336°
2026-04-28 14:02 24.18697 112.84392 26910 ft 465 kts 339°
2026-04-28 14:02 24.21806 112.83363 27146 ft 468 kts 339°
2026-04-28 14:02 24.24928 112.82330 27387 ft 470 kts 339°
2026-04-28 14:03 24.28066 112.81291 27641 ft 471 kts 339°
2026-04-28 14:03 24.31209 112.80249 27879 ft 473 kts 339°
2026-04-28 14:03 24.34364 112.79200 28108 ft 475 kts 339°
2026-04-28 14:03 24.37532 112.78144 28343 ft 477 kts 339°
2026-04-28 14:04 24.40681 112.76988 28541 ft 476 kts 333°
2026-04-28 14:04 24.43558 112.75238 28769 ft 471 kts 320°
2026-04-28 14:04 24.46011 112.72900 29019 ft 465 kts 308°
2026-04-28 14:04 24.47943 112.70096 29322 ft 459 kts 297°
2026-04-28 14:05 24.49303 112.66950 29580 ft 454 kts 286°
2026-04-28 14:05 24.50039 112.63649 29867 ft 450 kts 275°
2026-04-28 14:05 24.50722 112.56804 29967 ft 446 kts 274°
2026-04-28 14:06 24.51376 112.50088 29964 ft 445 kts 274°
2026-04-28 14:06 24.52038 112.43329 29962 ft 445 kts 274°
2026-04-28 14:07 24.52691 112.36580 29957 ft 444 kts 274°
2026-04-28 14:07 24.53336 112.29840 29943 ft 444 kts 273°
2026-04-28 14:08 24.53874 112.24190 29940 ft 444 kts 273°
2026-04-28 14:08 24.54515 112.17449 29931 ft 443 kts 273°
2026-04-28 14:09 24.55146 112.10759 29947 ft 444 kts 273°
2026-04-28 14:09 24.55780 112.04024 29941 ft 443 kts 273°
2026-04-28 14:10 24.56411 111.97288 29938 ft 443 kts 273°
2026-04-28 14:10 24.57021 111.90561 29927 ft 443 kts 273°
2026-04-28 14:11 24.57632 111.83832 29923 ft 443 kts 273°
2026-04-28 14:11 24.58253 111.77104 29915 ft 443 kts 273°
2026-04-28 14:12 24.58875 111.70365 29908 ft 444 kts 273°
2026-04-28 14:12 24.59498 111.63614 29908 ft 444 kts 273°
2026-04-28 14:13 24.60119 111.56853 29908 ft 445 kts 273°
2026-04-28 14:13 24.60727 111.50095 29901 ft 445 kts 273°
2026-04-28 14:14 24.61334 111.43329 29901 ft 445 kts 273°
2026-04-28 14:14 24.61940 111.36559 29897 ft 445 kts 273°
2026-04-28 14:15 24.62553 111.29790 29900 ft 445 kts 273°
2026-04-28 14:15 24.63161 111.23020 29892 ft 445 kts 273°
2026-04-28 14:16 24.63746 111.16244 29893 ft 445 kts 273°
2026-04-28 14:16 24.64325 111.09471 29890 ft 446 kts 273°
2026-04-28 14:17 24.64903 111.02686 29891 ft 446 kts 273°
2026-04-28 14:17 24.65479 110.95891 29885 ft 446 kts 273°
2026-04-28 14:18 24.66049 110.89142 29886 ft 447 kts 273°
2026-04-28 14:18 24.66753 110.82357 29888 ft 449 kts 280°
2026-04-28 14:19 24.67698 110.79080 29899 ft 452 kts 291°
2026-04-28 14:19 24.69183 110.76028 29897 ft 456 kts 301°
2026-04-28 14:19 24.73484 110.70860 29889 ft 461 kts 313°
2026-04-28 14:20 24.78125 110.65994 29904 ft 461 kts 313°
2026-04-28 14:20 24.82752 110.61120 29910 ft 460 kts 313°
2026-04-28 14:21 24.87367 110.56245 29909 ft 459 kts 313°
2026-04-28 14:21 24.91977 110.51381 29913 ft 458 kts 313°
2026-04-28 14:22 24.96580 110.46516 29913 ft 458 kts 312°
2026-04-28 14:22 25.01174 110.41654 29913 ft 457 kts 312°
2026-04-28 14:23 25.05762 110.36794 29926 ft 457 kts 312°
2026-04-28 14:23 25.10356 110.31940 29950 ft 457 kts 313°
2026-04-28 14:24 25.14951 110.27095 29986 ft 457 kts 312°
2026-04-28 14:24 25.19536 110.22245 30011 ft 456 kts 312°
2026-04-28 14:25 25.24111 110.17401 30019 ft 455 kts 312°
2026-04-28 14:25 25.28705 110.12593 30036 ft 455 kts 312°
2026-04-28 14:26 25.33319 110.07784 29927 ft 456 kts 312°
2026-04-28 14:26 25.37891 110.03001 29936 ft 456 kts 312°
2026-04-28 14:27 25.42484 109.98165 29936 ft 456 kts 312°
2026-04-28 14:27 25.47118 109.93287 29965 ft 456 kts 312°
2026-04-28 14:28 25.51682 109.88484 29958 ft 455 kts 312°
2026-04-28 14:28 25.56275 109.83638 29960 ft 456 kts 312°
2026-04-28 14:29 25.60871 109.78792 29988 ft 456 kts 312°
2026-04-28 14:29 25.65462 109.73946 29986 ft 456 kts 312°
2026-04-28 14:30 25.70049 109.69093 29984 ft 456 kts 312°
2026-04-28 14:30 25.74615 109.64219 29998 ft 454 kts 309°
2026-04-28 14:31 25.78110 109.58528 30002 ft 443 kts 290°
2026-04-28 14:31 25.80020 109.52074 30008 ft 440 kts 283°
2026-04-28 14:32 25.81745 109.45565 30022 ft 440 kts 284°
2026-04-28 14:32 25.83466 109.39040 30027 ft 441 kts 284°
2026-04-28 14:33 25.85182 109.32508 30030 ft 441 kts 284°
2026-04-28 14:33 25.86900 109.25980 30030 ft 441 kts 284°
2026-04-28 14:34 25.89455 109.16183 30030 ft 440 kts 284°
2026-04-28 14:35 25.91152 109.09650 30054 ft 440 kts 283°
2026-04-28 14:35 25.92856 109.03138 30067 ft 439 kts 284°
2026-04-28 14:36 25.94569 108.96686 30063 ft 438 kts 284°
2026-04-28 14:36 25.96304 108.90201 30067 ft 438 kts 284°
2026-04-28 14:37 25.98028 108.83713 30068 ft 437 kts 284°
2026-04-28 14:37 25.99744 108.77228 30072 ft 437 kts 283°
2026-04-28 14:38 26.01457 108.70747 30073 ft 437 kts 283°
2026-04-28 14:38 26.03176 108.64271 30068 ft 436 kts 283°
2026-04-28 14:39 26.04895 108.57802 30066 ft 436 kts 283°
2026-04-28 14:39 26.06613 108.51336 30069 ft 436 kts 283°
2026-04-28 14:40 26.08324 108.44859 30075 ft 436 kts 283°
2026-04-28 14:40 26.10222 108.38452 30082 ft 439 kts 291°
2026-04-28 14:41 26.12891 108.32331 30077 ft 439 kts 292°
2026-04-28 14:41 26.15538 108.26212 30079 ft 439 kts 292°
2026-04-28 14:42 26.18181 108.20092 30086 ft 439 kts 292°
2026-04-28 14:42 26.20827 108.13973 30096 ft 438 kts 292°
2026-04-28 14:43 26.23466 108.07847 30097 ft 439 kts 291°
2026-04-28 14:43 26.26098 108.01720 30101 ft 439 kts 292°
2026-04-28 14:44 26.28731 107.95594 30102 ft 439 kts 291°
2026-04-28 14:44 26.31368 107.89459 30099 ft 438 kts 292°
2026-04-28 14:45 26.33999 107.83334 30136 ft 438 kts 291°
2026-04-28 14:45 26.36620 107.77195 30130 ft 438 kts 291°
2026-04-28 14:46 26.39235 107.71060 30145 ft 438 kts 291°
2026-04-28 14:46 26.41845 107.64932 30139 ft 437 kts 291°
2026-04-28 14:47 26.44455 107.58814 30149 ft 436 kts 291°
2026-04-28 14:47 26.47041 107.52745 30145 ft 436 kts 291°
2026-04-28 14:48 26.49637 107.46633 30149 ft 435 kts 291°
2026-04-28 14:48 26.52226 107.40527 30156 ft 435 kts 291°
2026-04-28 14:49 26.54808 107.34423 30163 ft 435 kts 290°
2026-04-28 14:49 26.57387 107.28322 30178 ft 434 kts 290°
2026-04-28 14:50 26.59966 107.22222 30174 ft 434 kts 290°
2026-04-28 14:50 26.62534 107.16132 30184 ft 433 kts 290°
2026-04-28 14:51 26.65109 107.10045 30183 ft 433 kts 290°
2026-04-28 14:51 26.67698 107.03963 30211 ft 433 kts 290°
2026-04-28 14:52 26.70280 106.97893 30207 ft 432 kts 290°
2026-04-28 14:52 26.72854 106.91831 30203 ft 431 kts 290°
2026-04-28 14:53 26.75416 106.85768 30222 ft 431 kts 290°
2026-04-28 14:53 26.77573 106.80727 30216 ft 432 kts 294°
2026-04-28 14:54 26.81351 106.75411 30218 ft 446 kts 312°
2026-04-28 14:54 26.86030 106.70844 30207 ft 446 kts 313°
2026-04-28 14:55 26.90696 106.66275 30202 ft 446 kts 313°
2026-04-28 14:55 26.95365 106.61704 30207 ft 445 kts 313°
2026-04-28 14:56 27.00027 106.57133 30206 ft 445 kts 313°
2026-04-28 14:56 27.04680 106.52559 30206 ft 445 kts 313°
2026-04-28 14:57 27.09324 106.47974 30223 ft 444 kts 313°
2026-04-28 14:57 27.13960 106.43385 30224 ft 444 kts 313°
2026-04-28 14:58 27.18596 106.38815 30213 ft 443 kts 313°
2026-04-28 14:58 27.23208 106.34284 30219 ft 444 kts 314°
2026-04-28 14:59 27.27878 106.29747 30217 ft 444 kts 314°
2026-04-28 14:59 27.32555 106.25219 30213 ft 443 kts 314°
2026-04-28 15:00 27.37228 106.20690 30217 ft 444 kts 314°
2026-04-28 15:00 27.41890 106.16140 30220 ft 443 kts 314°
2026-04-28 15:01 27.46542 106.11588 30221 ft 443 kts 314°
2026-04-28 15:01 27.51202 106.07034 30219 ft 443 kts 314°
2026-04-28 15:02 27.55858 106.02476 30227 ft 443 kts 314°
2026-04-28 15:02 27.60509 105.97911 30219 ft 443 kts 313°
2026-04-28 15:03 27.65164 105.93336 30219 ft 444 kts 314°
2026-04-28 15:03 27.69813 105.88739 30231 ft 443 kts 311°
2026-04-28 15:04 27.73469 105.83292 30232 ft 432 kts 292°
2026-04-28 15:04 27.75507 105.77004 30261 ft 426 kts 284°
2026-04-28 15:05 27.77298 105.70629 30255 ft 426 kts 284°
2026-04-28 15:05 27.79086 105.64252 30246 ft 426 kts 284°
2026-04-28 15:06 27.81192 105.57989 30260 ft 429 kts 289°
2026-04-28 15:06 27.83589 105.51826 30260 ft 428 kts 289°
2026-04-28 15:07 27.85971 105.45704 30269 ft 428 kts 289°
2026-04-28 15:07 27.87965 105.40513 30271 ft 428 kts 289°
2026-04-28 15:08 27.90460 105.34398 30275 ft 429 kts 291°
2026-04-28 15:08 27.93194 105.28386 30277 ft 430 kts 293°
2026-04-28 15:09 27.95951 105.22384 30274 ft 430 kts 292°
2026-04-28 15:09 27.99454 105.16842 30279 ft 442 kts 310°
2026-04-28 15:10 28.04530 105.12753 30273 ft 452 kts 322°
2026-04-28 15:10 28.09895 105.09029 30273 ft 452 kts 322°
2026-04-28 15:11 28.15251 105.05288 30294 ft 452 kts 323°
2026-04-28 15:11 28.20594 105.01536 30290 ft 451 kts 323°
2026-04-28 15:12 28.25932 104.97790 30283 ft 451 kts 323°
2026-04-28 15:12 28.31270 104.94049 30278 ft 451 kts 323°
2026-04-28 15:13 28.36605 104.90305 30306 ft 451 kts 322°
2026-04-28 15:13 28.41946 104.86553 30301 ft 451 kts 322°
2026-04-28 15:14 28.47296 104.82815 30307 ft 452 kts 322°
2026-04-28 15:14 28.52653 104.79076 30303 ft 452 kts 322°
2026-04-28 15:15 28.58010 104.75330 30295 ft 452 kts 322°
2026-04-28 15:15 28.63361 104.71580 30296 ft 452 kts 322°
2026-04-28 15:16 28.68711 104.67822 30295 ft 452 kts 322°
2026-04-28 15:16 28.74058 104.64061 30310 ft 452 kts 323°
2026-04-28 15:17 28.79372 104.60314 30303 ft 452 kts 323°
2026-04-28 15:17 28.84759 104.56513 30295 ft 452 kts 323°
2026-04-28 15:18 28.90062 104.52756 30293 ft 452 kts 322°
2026-04-28 15:18 28.95399 104.48951 30292 ft 452 kts 322°
2026-04-28 15:19 29.00730 104.45148 30292 ft 452 kts 322°
2026-04-28 15:19 29.06068 104.41337 30305 ft 452 kts 323°
2026-04-28 15:20 29.11397 104.37529 30303 ft 452 kts 323°
2026-04-28 15:20 29.16724 104.33720 30298 ft 451 kts 323°
2026-04-28 15:21 29.22045 104.29913 30292 ft 451 kts 323°
2026-04-28 15:21 29.27355 104.26093 30291 ft 451 kts 322°
2026-04-28 15:22 29.32543 104.22091 30294 ft 449 kts 320°
2026-04-28 15:22 29.37612 104.17923 30311 ft 448 kts 319°
2026-04-28 15:23 29.42671 104.13756 30293 ft 448 kts 320°
2026-04-28 15:23 29.47770 104.09639 30167 ft 449 kts 320°
2026-04-28 15:23 29.50333 104.07585 29882 ft 449 kts 320°
2026-04-28 15:24 29.52895 104.05530 29621 ft 449 kts 320°
2026-04-28 15:24 29.55455 104.03470 29360 ft 450 kts 320°
2026-04-28 15:24 29.58015 104.01404 29085 ft 450 kts 320°
2026-04-28 15:24 29.60576 103.99336 28822 ft 450 kts 321°
2026-04-28 15:25 29.63136 103.97266 28564 ft 450 kts 321°
2026-04-28 15:25 29.65692 103.95196 28322 ft 450 kts 320°
2026-04-28 15:25 29.68261 103.93114 28062 ft 452 kts 321°
2026-04-28 15:25 29.70803 103.91053 27811 ft 453 kts 321°
2026-04-28 15:26 29.73378 103.88965 27561 ft 453 kts 321°
2026-04-28 15:26 29.75953 103.86879 27314 ft 452 kts 321°
2026-04-28 15:26 29.78514 103.84804 27066 ft 449 kts 321°
2026-04-28 15:26 29.81061 103.82735 26820 ft 447 kts 321°
2026-04-28 15:27 29.83597 103.80673 26578 ft 445 kts 321°
2026-04-28 15:27 29.86118 103.78620 26337 ft 443 kts 321°
2026-04-28 15:27 29.88625 103.76579 26100 ft 441 kts 321°
2026-04-28 15:27 29.91125 103.74542 25860 ft 439 kts 321°
2026-04-28 15:28 29.93613 103.72512 25624 ft 437 kts 321°
2026-04-28 15:28 29.96090 103.70490 25399 ft 435 kts 321°
2026-04-28 15:28 29.98556 103.68476 25169 ft 433 kts 322°
2026-04-28 15:28 30.01002 103.66480 24527 ft 429 kts 322°
2026-04-28 15:29 30.03440 103.64494 23806 ft 428 kts 324°
2026-04-28 15:29 30.06063 103.62878 23018 ft 429 kts 336°
2026-04-28 15:29 30.08933 103.61975 22365 ft 428 kts 349°
2026-04-28 15:29 30.11897 103.61822 21690 ft 427 kts
2026-04-28 15:30 30.14814 103.62432 21046 ft 427 kts 15°
2026-04-28 15:30 30.17580 103.63652 20421 ft 424 kts 20°
2026-04-28 15:30 30.20299 103.64924 19814 ft 419 kts 20°
2026-04-28 15:30 30.22991 103.66181 19243 ft 415 kts 20°
2026-04-28 15:31 30.25652 103.67422 18702 ft 410 kts 20°
2026-04-28 15:31 30.28284 103.68643 18116 ft 405 kts 20°
2026-04-28 15:31 30.30880 103.69846 17585 ft 399 kts 20°
2026-04-28 15:31 30.33439 103.71025 17082 ft 393 kts 20°
2026-04-28 15:32 30.35962 103.72184 16557 ft 388 kts 20°
2026-04-28 15:32 30.37617 103.72947 16212 ft 385 kts 20°
2026-04-28 15:32 30.40930 103.74477 15491 ft 382 kts 21°
2026-04-28 15:32 30.43387 103.75612 14944 ft 379 kts 21°
2026-04-28 15:33 30.45838 103.76742 14379 ft 378 kts 21°
2026-04-28 15:33 30.48282 103.77868 13763 ft 378 kts 21°
2026-04-28 15:33 30.50716 103.78989 13158 ft 375 kts 21°
2026-04-28 15:33 30.53129 103.80104 12557 ft 372 kts 22°
2026-04-28 15:34 30.55519 103.81212 11952 ft 368 kts 22°
2026-04-28 15:34 30.57884 103.82310 11340 ft 364 kts 22°
2026-04-28 15:34 30.60212 103.83388 10964 ft 354 kts 22°
2026-04-28 15:34 30.62425 103.84412 10829 ft 327 kts 23°
2026-04-28 15:35 30.64446 103.85347 10698 ft 299 kts 23°
2026-04-28 15:35 30.68081 103.87044 10388 ft 269 kts 24°
2026-04-28 15:35 30.69788 103.87846 10165 ft 262 kts 24°
2026-04-28 15:36 30.71480 103.88642 10109 ft 262 kts 24°
2026-04-28 15:36 30.73166 103.89433 9995 ft 261 kts 24°
2026-04-28 15:36 30.74862 103.90229 9426 ft 264 kts 24°
2026-04-28 15:36 30.76536 103.91014 8722 ft 262 kts 24°
2026-04-28 15:37 30.78232 103.91807 8246 ft 253 kts 24°
2026-04-28 15:37 30.79801 103.92542 8068 ft 234 kts 24°
2026-04-28 15:37 30.81196 103.93311 7954 ft 219 kts 38°
2026-04-28 15:37 30.81907 103.94149 7882 ft 215 kts 56°
2026-04-28 15:38 30.82443 103.96377 7540 ft 221 kts 92°
2026-04-28 15:38 30.81988 103.98099 7206 ft 226 kts 108°
2026-04-28 15:38 30.81380 103.99804 6846 ft 229 kts 108°
2026-04-28 15:38 30.80771 104.01526 6480 ft 231 kts 108°
2026-04-28 15:39 30.80077 104.03201 6112 ft 238 kts 124°
2026-04-28 15:39 30.78689 104.04274 5750 ft 250 kts 163°
2026-04-28 15:39 30.76951 104.04204 5413 ft 252 kts 193°
2026-04-28 15:39 30.75330 104.03506 5081 ft 245 kts 203°
2026-04-28 15:40 30.73827 104.02657 4732 ft 236 kts 207°
2026-04-28 15:40 30.72389 104.01823 4399 ft 227 kts 207°
2026-04-28 15:40 30.71004 104.01014 4101 ft 218 kts 209°
2026-04-28 15:40 30.69670 104.00252 3839 ft 208 kts 205°
2026-04-28 15:41 30.68792 103.99814 3646 ft 200 kts 203°
2026-04-28 15:41 30.67163 103.99044 3327 ft 179 kts 203°
2026-04-28 15:41 30.66060 103.98529 3078 ft 164 kts 203°
2026-04-28 15:41 30.65036 103.98051 2864 ft 154 kts 203°
2026-04-28 15:42 30.64054 103.97593 2669 ft 150 kts 203°
2026-04-28 15:42 30.63406 103.97290 2530 ft 147 kts 203°
2026-04-28 15:42 30.62467 103.96852 2346 ft 144 kts 202°
2026-04-28 15:42 30.61546 103.96419 2147 ft 142 kts 202°
2026-04-28 15:43 30.60634 103.95995 1932 ft 141 kts 202°
2026-04-28 15:43 30.59740 103.95581 1742 ft 139 kts 202°
2026-04-28 15:43 30.58858 103.95173 1658 ft 128 kts 202°
2026-04-28 15:43 30.58150 103.94839 1647 ft 86 kts 202°
2026-04-28 15:44 30.57740 103.94650 1647 ft 49 kts 202°
2026-04-28 15:44 30.57454 103.94520 1646 ft 33 kts 200°
2026-04-28 15:44 30.57251 103.94451 1645 ft 30 kts 187°
2026-04-28 15:44 30.57065 103.94464 1647 ft 20 kts 168°
2026-04-28 15:45 30.57033 103.94584 1647 ft 17 kts 87°
2026-04-28 15:45 30.57121 103.94668 1647 ft 18 kts 22°
2026-04-28 15:45 30.57230 103.94736 1647 ft 17 kts 61°
2026-04-28 15:45 30.57262 103.94869 1647 ft 18 kts 94°
2026-04-28 15:46 30.57219 103.94995 1647 ft 12 kts 112°
2026-04-28 15:46 30.57188 103.95078 1647 ft 9 kts 121°
2026-04-28 15:46 30.57165 103.95114 1647 ft 5 kts 121°
2026-04-28 15:46 30.57151 103.95141 1647 ft 3 kts 122°
2026-04-28 15:47 30.57149 103.95144 1647 ft 0 kts 123°